STARLINK-11209 [DTC]

Last updated on Mon Oct 21 2024 00:02:04 GMT+0000 (Coordinated Universal Time)

1 61200U 24171A 24293.94357922 .00001626 00000+0 13921-4 0 9999 2 61200 53.1532 150.2966 0000988 318.5401 41.5545 15.76738958 5868
UTC large
Height (km)
Speed (km/s)
/
Latitude / Longitude
Inclination (degrees)
Orbital Period (minutes)
Azimuth
Elevation
Range (km)
Doppler Factor

Next 0 passes for location: London (51.5072 / 0.1276)

Sorry there are no passes over London.